(337319) = 2001 BV57

Discovered at Oaxaca on 2001-01-29 by J. M. Roe.

Orbit

Orbit type: Main Belt

Note: WebGL enabled browser required.

epoch2023-09-13.0
epoch JD2460200.5
perihelion date2021-11-07.76234
perihelion JD2459526.26234
argument of perihelion (°)159.60587
ascending node (°)301.86425
inclination (°)4.60741
eccentricity0.2161011
perihelion distance (AU)2.0401695
Tisserand w.r.t. Jupiter3.4
ΔV w.r.t. Earth (km/sec)9.1
semimajor axis (AU)2.6025927
mean anomaly (°)158.27326
mean daily motion (°/day)0.23474400
aphelion distance (AU)3.165
period (years)4.2
P-vector [x]-0.19981340
P-vector [y]0.88747846
P-vector [z]0.41527893
Q-vector [x]-0.97745603
Q-vector [y]-0.15103096
Q-vector [z]-0.14754441
absolute magnitude16.68
phase slope0.15
uncertainty0
referenceMPEC 2023-X152
observations used497
oppositions10
arc length (days)7714
first opposition used2001
last opposition used2022
residual rms (arc-secs)0.72
perturbers coarse indicatorM-v
perturbers precise indicator003Ek
first observation date used2001-01-21.0
last observation date used2022-03-06.0
computer nameMPCLINUX
JD of orbit computation2456937.439209
perihelion JD uncertainty (days)2.0370E-04
argument of perihelion uncertainty (°)8.7957E-05
ascending node uncertainty (°)7.4283E-05
inclination uncertainty (°)4.2338E-06
eccentricity uncertainty 8.4991E-08
perihelion distance uncertainty (AU)2.4846E-07
Minimum Orbit Intersection Distances (in AU)
for orbit epoch: 2460200.5, reference: E2023-XF2
Mercury1.7275
Venus1.32106
Earth1.05643
Mars0.42639
Jupiter1.99727
Saturn6.87502
Uranus15.9704
Neptune27.0971

Observations

507 total observations over interval: 2001 01 21.37939 – 2022 03 06.276153
These data are available for download (format description).

Date (UT) J2000 RA J2000 Dec Magn Location Ref
2001 01 21.37939 09 35 13.68 +12 48 13.4 19.0   704 – Lincoln Laboratory ETS, New Mexico MPS 25743
2001 01 21.39443 09 35 12.84 +12 48 13.9 19.6   704 – Lincoln Laboratory ETS, New Mexico MPS 25743
2001 01 21.40945 09 35 12.09 +12 48 14.8 19.2   704 – Lincoln Laboratory ETS, New Mexico MPS 25743
2001 01 21.42446 09 35 11.28 +12 48 14.7 19.4   704 – Lincoln Laboratory ETS, New Mexico MPS 25743
2001 01 29.27936 09 28 10.96 +12 55 49.4 18.4 R 732 – Oaxaca MPS 25743
2001 01 29.29034 09 28 10.26 +12 55 49.4 19.0 R 732 – Oaxaca MPS 25743
2001 01 29.30131 09 28 09.64 +12 55 51.4 19.1 R 732 – Oaxaca MPS 25743
2001 01 30.28654 09 27 13.09 +12 57 07.1 18.1 R 732 – Oaxaca MPS 25743
2001 01 30.29773 09 27 12.42 +12 57 08.4 18.4 R 732 – Oaxaca MPS 25743
2001 01 30.30888 09 27 11.72 +12 57 09.8 18.6 R 732 – Oaxaca MPS 25743
2001 01 31.29142 09 26 14.76 +12 58 28.6 18.2 R 732 – Oaxaca MPS 25743
2001 01 31.30238 09 26 14.15 +12 58 29.3 18.2 R 732 – Oaxaca MPS 25743
2001 01 31.31576 09 26 13.32 +12 58 31.0 18.6 R 732 – Oaxaca MPS 25743
2001 02 01.19051 09 25 22.54 +12 59 44.3 18.1 R 732 – Oaxaca MPS 25743
2001 02 01.19522 09 25 22.29 +12 59 44.3 18.0 R 732 – Oaxaca MPS 25743
2001 02 01.19994 09 25 21.86 +12 59 44.4 18.3 R 732 – Oaxaca MPS 25743
2001 02 02.25601 09 24 19.64 +13 01 17.2 22.0 R 732 – Oaxaca MPS 25743
2001 02 02.26698 09 24 19.03 +13 01 18.5 17.8 R 732 – Oaxaca MPS 25743
2001 02 02.27794 09 24 18.32 +13 01 19.1 18.7 R 732 – Oaxaca MPS 25743
2001 02 02.31032 09 24 16.45 +13 01 19.1 19.0   704 – Lincoln Laboratory ETS, New Mexico MPS 25743
2001 02 02.32520 09 24 15.54 +13 01 20.6 19.3   704 – Lincoln Laboratory ETS, New Mexico MPS 25743
2001 02 02.34011 09 24 14.61 +13 01 22.1 19.0   704 – Lincoln Laboratory ETS, New Mexico MPS 25743
2001 02 02.35503 09 24 13.66 +13 01 23.2 18.9   704 – Lincoln Laboratory ETS, New Mexico MPS 25743
2001 02 02.36993 09 24 12.72 +13 01 25.0 18.9   704 – Lincoln Laboratory ETS, New Mexico MPS 25743
2001 02 11.20846 09 15 32.06 +13 15 18.4 18.6 R 732 – Oaxaca MPS 26846
2001 02 11.21957 09 15 31.43 +13 15 20.9 18.5 R 732 – Oaxaca MPS 26846
2001 02 11.23068 09 15 30.62 +13 15 21.7 18.4 R 732 – Oaxaca MPS 26846
2001 02 14.19023 09 12 42.82 +13 20 04.0 18.6 R 732 – Oaxaca MPS 26846
2001 02 14.20134 09 12 42.11 +13 20 04.6 18.8 R 732 – Oaxaca MPS 26846
2001 02 16.23854 09 10 50.85 +13 23 10.5 18.5 R 699 – Lowell Observatory-LONEOS MPS 27948
2001 02 16.26038 09 10 49.47 +13 23 12.0   699 – Lowell Observatory-LONEOS MPS 27948
2001 02 16.28221 09 10 48.46 +13 23 14.0   699 – Lowell Observatory-LONEOS MPS 27948
2001 02 16.30410 09 10 46.95 +13 23 16.8   699 – Lowell Observatory-LONEOS MPS 27948
2001 02 19.24162 09 08 13.58 +13 27 30.6 18.8   704 – Lincoln Laboratory ETS, New Mexico MPS 26846
2001 02 19.25602 09 08 12.85 +13 27 32.1 19.0   704 – Lincoln Laboratory ETS, New Mexico MPS 26846
2001 02 19.27014 09 08 12.13 +13 27 33.1 19.1   704 – Lincoln Laboratory ETS, New Mexico MPS 26846
2001 02 19.28428 09 08 11.38 +13 27 35.5 19.4   704 – Lincoln Laboratory ETS, New Mexico MPS 26846
2001 02 19.29856 09 08 10.58 +13 27 35.4 19.1   704 – Lincoln Laboratory ETS, New Mexico MPS 26846
2001 02 20.30451 09 07 20.46 +13 28 57.9 19.2   704 – Lincoln Laboratory ETS, New Mexico MPS 26846
2001 02 20.31883 09 07 19.73 +13 29 00.8 19.2   704 – Lincoln Laboratory ETS, New Mexico MPS 26847
2001 02 20.33312 09 07 19.05 +13 29 00.1 19.0   704 – Lincoln Laboratory ETS, New Mexico MPS 26847
2001 02 20.34738 09 07 18.24 +13 29 02.3 18.8   704 – Lincoln Laboratory ETS, New Mexico MPS 26847
2001 02 21.21784 09 06 36.33 +13 30 10.2 18.6 R 699 – Lowell Observatory-LONEOS MPS 26847
2001 02 21.25526 09 06 34.42 +13 30 14.5   699 – Lowell Observatory-LONEOS MPS 26847
2001 02 21.29278 09 06 32.54 +13 30 16.1   699 – Lowell Observatory-LONEOS MPS 26847
2001 02 21.33039 09 06 30.53 +13 30 20.9   699 – Lowell Observatory-LONEOS MPS 26847
2001 02 22.24174 09 05 47.87 +13 31 27.7 19.0   704 – Lincoln Laboratory ETS, New Mexico MPS 26847
2001 02 22.24673 09 05 47.70 +13 31 29.4 17.6 R 699 – Lowell Observatory-LONEOS MPS 27948
2001 02 22.25577 09 05 47.20 +13 31 29.3 18.9   704 – Lincoln Laboratory ETS, New Mexico MPS 26847
2001 02 22.25841 09 05 47.07 +13 31 29.5   699 – Lowell Observatory-LONEOS MPS 27948
2001 02 22.27010 09 05 46.56 +13 31 30.3   699 – Lowell Observatory-LONEOS MPS 27949
2001 02 22.27046 09 05 46.49 +13 31 30.2 19.1   704 – Lincoln Laboratory ETS, New Mexico MPS 26847
2001 02 22.28180 09 05 45.94 +13 31 32.0   699 – Lowell Observatory-LONEOS MPS 27949
2001 02 22.28451 09 05 45.74 +13 31 32.4 19.2   704 – Lincoln Laboratory ETS, New Mexico MPS 26847
2001 02 22.29944 09 05 45.03 +13 31 32.8 19.3   704 – Lincoln Laboratory ETS, New Mexico MPS 26847
2004 12 09.45877 06 43 44.44 +27 40 59.8 19.3 V 691 – Steward Observatory, Kitt Peak-Spacewatch MPS 121665
2004 12 09.48552 06 43 43.14 +27 40 58.1 19.3 V 691 – Steward Observatory, Kitt Peak-Spacewatch MPS 121665
2004 12 09.51352 06 43 41.87 +27 40 56.5 19.9 V 691 – Steward Observatory, Kitt Peak-Spacewatch MPS 121665
2004 12 10.28671 06 43 06.63 +27 40 14.5 19.2 V 691 – Steward Observatory, Kitt Peak-Spacewatch MPS 121665
2004 12 10.31913 06 43 05.01 +27 40 12.9 19.2 V 691 – Steward Observatory, Kitt Peak-Spacewatch MPS 121665
2004 12 10.34522 06 43 03.70 +27 40 11.5 19.0 V 691 – Steward Observatory, Kitt Peak-Spacewatch MPS 121665
2004 12 11.33350 06 42 16.28 +27 39 13.3 19.2   704 – Lincoln Laboratory ETS, New Mexico MPS 121665
2004 12 11.34618 06 42 15.62 +27 39 13.9 19.3   704 – Lincoln Laboratory ETS, New Mexico MPS 121665
2004 12 11.35940 06 42 14.88 +27 39 12.0 19.4   704 – Lincoln Laboratory ETS, New Mexico MPS 121665
2004 12 11.37209 06 42 14.28 +27 39 11.9 19.6   704 – Lincoln Laboratory ETS, New Mexico MPS 121665
2004 12 11.38479 06 42 13.65 +27 39 10.7 19.2   704 – Lincoln Laboratory ETS, New Mexico MPS 121665
2004 12 15.25294 06 38 53.27 +27 34 43.3 18.5   704 – Lincoln Laboratory ETS, New Mexico MPS 121665
2004 12 15.27909 06 38 51.72 +27 34 40.5 19.2   704 – Lincoln Laboratory ETS, New Mexico MPS 121665
2004 12 15.29240 06 38 51.07 +27 34 41.0 19.1   704 – Lincoln Laboratory ETS, New Mexico MPS 121665
2004 12 15.30758 06 38 50.17 +27 34 38.7 18.9   704 – Lincoln Laboratory ETS, New Mexico MPS 121665
2004 12 17.32573 06 36 57.21 +27 31 51.7 19.0   704 – Lincoln Laboratory ETS, New Mexico MPS 122653
2004 12 17.33885 06 36 56.40 +27 31 51.0 19.1   704 – Lincoln Laboratory ETS, New Mexico MPS 122653
2004 12 17.35195 06 36 55.67 +27 31 50.3 19.3   704 – Lincoln Laboratory ETS, New Mexico MPS 122653
2004 12 17.36556 06 36 54.81 +27 31 48.5 19.1   704 – Lincoln Laboratory ETS, New Mexico MPS 122653
2004 12 19.24169 06 35 06.11 +27 28 53.9 19.0 V 691 – Steward Observatory, Kitt Peak-Spacewatch MPS 122653
2004 12 19.26712 06 35 04.54 +27 28 51.7 19.1 V 691 – Steward Observatory, Kitt Peak-Spacewatch MPS 122653
2004 12 19.29235 06 35 02.97 +27 28 49.4 19.0 V 691 – Steward Observatory, Kitt Peak-Spacewatch MPS 122653
2005 01 06.28258 06 16 42.23 +26 45 15.8 19.0   704 – Lincoln Laboratory ETS, New Mexico MPS 123467
2005 01 06.29608 06 16 41.48 +26 45 13.1 19.4   704 – Lincoln Laboratory ETS, New Mexico MPS 123467
2005 01 06.30923 06 16 40.62 +26 45 11.2 18.8   704 – Lincoln Laboratory ETS, New Mexico MPS 123467
2005 01 06.32239 06 16 39.85 +26 45 07.8 19.2   704 – Lincoln Laboratory ETS, New Mexico MPS 123467
2005 01 15.21463 06 09 05.81 +26 14 59.0 19.2   704 – Lincoln Laboratory ETS, New Mexico MPS 124635
2005 01 15.22779 06 09 05.17 +26 14 55.9 19.9   704 – Lincoln Laboratory ETS, New Mexico MPS 124635
2005 01 15.24100 06 09 04.57 +26 14 54.4 19.7   704 – Lincoln Laboratory ETS, New Mexico MPS 124635
2005 01 15.25419 06 09 03.98 +26 14 50.5 19.9   704 – Lincoln Laboratory ETS, New Mexico MPS 124635
2005 01 15.26845 06 09 03.28 +26 14 48.1 19.9   704 – Lincoln Laboratory ETS, New Mexico MPS 124635
2005 03 11.16175 06 23 13.35 +23 16 52.7 19.7 R G96 – Mt. Lemmon Survey MPS 127815
2005 03 11.16879 06 23 13.80 +23 16 51.4 19.8 R G96 – Mt. Lemmon Survey MPS 127815
2005 03 11.17583 06 23 14.28 +23 16 50.1 19.9 R G96 – Mt. Lemmon Survey MPS 127815
